Location: ?????????
(38.5999°N, 22.7695°E)
Time: 10:02:45
(UTC+00:00)

Cosmos 1850 Rocket - Pass Details

Date: 23 May 2024
Orbit: 753 x 782 km, 74.0° (Epoch: 23 June)

Event Time Altitude Azimuth Distance (km) Brightness Sun altitude
Exits shadow 00:06:04 72° 130° (SE) 816 4.0 -26.3°
Maximum altitude 00:06:18 74° 106° (ESE) 810 4.0 -26.2°
Drops below altitude 10° 00:11:34 10° 22° (NNE) 2,322 7.5 -25.8°
Sets 00:13:56 0° 21° (NNE) 3,248 8.6 -25.6°
